Weather reports worldwide

Advertisment
Mte.Calamita, Italy (16197): temperature & dewpoint: 15.01.2018 04:00:00 - 21.01.2018 04:00:00 (CET)Mte.Calamita, Italy (16197): wind speed: 15.01.2018 04:00:00 - 21.01.2018 04:00:00 (CET)Mte.Calamita, Italy (16197): wind direction: 15.01.2018 04:00:00 - 21.01.2018 04:00:00 (CET)Mte.Calamita, Italy (16197): reduced air pressure: 15.01.2018 04:00:00 - 21.01.2018 04:00:00 (CET)Mte.Calamita, Italy (16197): visibility: 15.01.2018 04:00:00 - 21.01.2018 04:00:00 (CET)Mte.Calamita, Italy (16197): sunshine duration: 15.01.2018 04:00:00 - 21.01.2018 04:00:00 (CET)
Date & Time tt [°C] td [°C] ff [km/h] ff [kn] dd ppp [hPa] vv [km] sd [min]
21.01.2018 04:00:00 - - - - - - - -
21.01.2018 03:00:00 - - - - - - - -
21.01.2018 02:00:00 - - - - - - - -
21.01.2018 01:00:00 - - - - - - - -
21.01.2018 00:00:00 - - - - - - - -
20.01.2018 23:00:00 - - - - - - - -
20.01.2018 22:00:00 - - - - - - - -
20.01.2018 21:00:00 - - - - - - - -
20.01.2018 20:00:00 8,0 7,0 8 4 WNW - 8 -
20.01.2018 19:00:00 8,4 5,2 4 2 W 1010,0 10 0
20.01.2018 18:00:00 9,0 5,0 4 2 W - 10 -
20.01.2018 17:00:00 9,0 5,0 4 2 S - 10 -
20.01.2018 16:00:00 10,6 4,5 5 3 W 1010,1 20 0
20.01.2018 15:00:00 11,0 3,0 4 2 W - 10 -
20.01.2018 14:00:00 12,0 5,0 4 2 W - 10 -
20.01.2018 13:00:00 11,2 3,0 5 3 W 1011,8 20 60
20.01.2018 12:00:00 11,0 3,0 8 4 WNW - 10 -
20.01.2018 11:00:00 10,0 3,0 11 6 W - 10 -
20.01.2018 10:00:00 9,0 5,0 15 8 W 1012,1 20 60
20.01.2018 09:00:00 8,0 5,0 15 8 NNW - 10 -
20.01.2018 08:00:00 8,0 5,0 18 10 NNW - 10 -
20.01.2018 07:00:00 8,2 5,1 15 8 NNW 1011,1 10 0
20.01.2018 06:00:00 - - - - - - - -
20.01.2018 05:00:00 - - - - - - - -
20.01.2018 04:00:00 - - - - - - - -
20.01.2018 03:00:00 - - - - - - - -
20.01.2018 02:00:00 - - - - - - - -
20.01.2018 01:00:00 - - - - - - - -
20.01.2018 00:00:00 - - - - - - - -
19.01.2018 23:00:00 - - - - - - - -
19.01.2018 22:00:00 - - - - - - - -
19.01.2018 21:00:00 - - - - - - - -
19.01.2018 20:00:00 10,0 7,0 8 4 W - 10 -
19.01.2018 19:00:00 10,4 7,1 5 3 W 1009,0 10 0
19.01.2018 18:00:00 9,0 6,0 5 3 W - 10 -
19.01.2018 17:00:00 10,0 8,0 4 2 N - 10 -
19.01.2018 16:00:00 10,0 8,1 8 4 N 1008,6 15 0
19.01.2018 15:00:00 10,0 8,0 8 4 E - 10 -
19.01.2018 14:00:00 10,0 8,0 8 4 E - 4,0 -
19.01.2018 13:00:00 10,0 8,3 5 3 E 1009,7 0,5 0
19.01.2018 12:00:00 10,0 8,0 8 4 E - 0,5 -
19.01.2018 11:00:00 10,0 8,0 8 4 E - 0,2 -
19.01.2018 10:00:00 9,4 7,7 9 5 E 1009,9 0,5 0
19.01.2018 09:00:00 9,0 7,0 9 5 E - 0,1 -
19.01.2018 08:00:00 9,0 7,0 8 4 E - 0,1 -
19.01.2018 07:00:00 8,2 7,0 9 5 E 1010,7 0,2 0
19.01.2018 06:00:00 - - - - - - - -
19.01.2018 05:00:00 - - - - - - - -
19.01.2018 04:00:00 - - - - - - - -
19.01.2018 03:00:00 - - - - - - - -
19.01.2018 02:00:00 - - - - - - - -
19.01.2018 01:00:00 - - - - - - - -
19.01.2018 00:00:00 - - - - - - - -
18.01.2018 23:00:00 - - - - - - - -
18.01.2018 22:00:00 - - - - - - - -
18.01.2018 21:00:00 - - - - - - - -
18.01.2018 20:00:00 8,0 7,0 11 6 E - 10 -
18.01.2018 19:00:00 8,0 7,1 15 8 E 1015,1 10 0
18.01.2018 18:00:00 8,0 7,0 8 4 E - 10 -
18.01.2018 17:00:00 9,0 7,0 9 5 ESE - 10 -
18.01.2018 16:00:00 11,4 5,5 9 5 ESE 1014,9 30 60
18.01.2018 15:00:00 12,0 5,0 11 6 SSE - 10 -
18.01.2018 14:00:00 12,0 6,0 8 4 SSE - 10 -
18.01.2018 13:00:00 10,6 7,3 11 6 SSE 1017,1 20 60
18.01.2018 12:00:00 11,0 7,0 5 3 SSE - 10 -
18.01.2018 11:00:00 10,0 6,0 9 5 SSE - 10 -
18.01.2018 10:00:00 10,0 3,5 8 4 S 1017,2 20 60
18.01.2018 09:00:00 8,0 3,0 4 2 SSE - 10 -
18.01.2018 08:00:00 7,0 2,0 4 2 SSE - 10 -
18.01.2018 07:00:00 6,8 1,7 4 2 W 1016,8 10 0
18.01.2018 06:00:00 - - - - - - - -
18.01.2018 05:00:00 - - - - - - - -
18.01.2018 04:00:00 - - - - - - - -
18.01.2018 03:00:00 - - - - - - - -
18.01.2018 02:00:00 - - - - - - - -
18.01.2018 01:00:00 - - - - - - - -
18.01.2018 00:00:00 - - - - - - - -
17.01.2018 23:00:00 - - - - - - - -
17.01.2018 22:00:00 - - - - - - - -
17.01.2018 21:00:00 - - - - - - - -
17.01.2018 20:00:00 9,0 -2,0 18 10 NNW - 10 -
17.01.2018 19:00:00 9,0 -1,4 28 15 N 1009,1 10 0
17.01.2018 18:00:00 9,0 -4,0 34 18 N - 10 -
17.01.2018 17:00:00 10,0 -4,0 52 28 N - 10 -
17.01.2018 16:00:00 11,0 2,8 48 26 N 1004,2 10 60
17.01.2018 15:00:00 11,0 2,0 57 31 NNW - 10 -
17.01.2018 14:00:00 11,0 1,0 57 31 W - 10 -
17.01.2018 13:00:00 11,0 1,3 57 31 NNW 1001,7 10 60
17.01.2018 12:00:00 11,0 2,0 57 31 NNE - 10 -
17.01.2018 11:00:00 12,0 5,0 63 34 NNW - 10 -
17.01.2018 10:00:00 11,6 5,0 61 33 WNW 1001,0 10 60
17.01.2018 09:00:00 12,0 5,0 63 34 W - 10 -
17.01.2018 08:00:00 12,0 5,0 70 38 W - 7 -
17.01.2018 07:00:00 12,0 8,3 61 33 WNW 999,1 10 0
17.01.2018 06:00:00 - - - - - - - -
17.01.2018 05:00:00 - - - - - - - -
17.01.2018 04:00:00 - - - - - - - -
17.01.2018 03:00:00 - - - - - - - -
17.01.2018 02:00:00 - - - - - - - -
17.01.2018 01:00:00 - - - - - - - -
17.01.2018 00:00:00 - - - - - - - -
16.01.2018 23:00:00 - - - - - - - -
16.01.2018 22:00:00 - - - - - - - -
16.01.2018 21:00:00 - - - - - - - -
16.01.2018 20:00:00 11,0 8,0 11 6 E - 10 -
16.01.2018 19:00:00 11,0 8,7 8 4 ENE 1008,4 15 -
16.01.2018 18:00:00 11,0 9,0 8 4 E - 10 -
16.01.2018 17:00:00 13,0 6,0 9 5 ENE - 10 -
16.01.2018 16:00:00 14,4 7,9 9 5 ESE 1008,9 30 30
16.01.2018 15:00:00 14,0 10,0 11 6 SSE - 10 -
16.01.2018 14:00:00 14,0 10,0 9 5 SSW - 10 -
16.01.2018 13:00:00 12,4 7,3 8 4 SSE 1012,4 30 0
16.01.2018 12:00:00 11,0 7,0 4 2 SSW - 10 -
16.01.2018 11:00:00 12,0 7,0 5 3 S - 10 -
16.01.2018 10:00:00 10,4 6,2 4 2 S 1013,0 25 0
16.01.2018 09:00:00 9,0 6,0 8 4 S - 10 -
16.01.2018 08:00:00 9,0 6,0 4 2 S - 10 -
16.01.2018 07:00:00 8,0 6,6 4 2 S 1014,3 10 0
16.01.2018 06:00:00 - - - - - - - -
16.01.2018 05:00:00 - - - - - - - -
16.01.2018 04:00:00 - - - - - - - -
16.01.2018 03:00:00 - - - - - - - -
16.01.2018 02:00:00 - - - - - - - -
16.01.2018 01:00:00 - - - - - - - -
16.01.2018 00:00:00 - - - - - - - -
15.01.2018 23:00:00 - - - - - - - -
15.01.2018 22:00:00 - - - - - - - -
15.01.2018 21:00:00 - - - - - - - -
15.01.2018 20:00:00 8,0 7,0 5 3 S - 10 -
15.01.2018 19:00:00 8,4 7,7 8 4 S 1019,5 30 0
15.01.2018 18:00:00 8,0 8,0 5 3 S - 10 -
15.01.2018 17:00:00 9,0 8,0 4 2 S - 10 -
15.01.2018 16:00:00 10,0 7,2 5 3 SSE 1019,3 20 0
15.01.2018 15:00:00 9,0 7,0 8 4 SE - 10 -
15.01.2018 14:00:00 9,0 8,0 5 3 SSE - 10 -
15.01.2018 13:00:00 8,2 6,0 9 5 SSE 1020,8 20 0
15.01.2018 12:00:00 10,0 7,0 8 4 E - 10 -
15.01.2018 11:00:00 9,0 6,0 4 2 E - 10 -
15.01.2018 10:00:00 6,8 4,8 5 3 E 1021,4 15 60
15.01.2018 09:00:00 6,0 5,0 8 4 E - 10 -
15.01.2018 08:00:00 6,0 5,0 8 4 E - 10 -
15.01.2018 07:00:00 5,4 4,8 8 4 E 1020,9 20 0
15.01.2018 06:00:00 - - - - - - - -
15.01.2018 05:00:00 - - - - - - - -
15.01.2018 04:00:00 - - - - - - - -

tt = temperature
td = dewpoint
ff = wind speed
dd = wind direction
ppp = reduced air pressure
vv = visibility
sd = sunshine duration

Next stations